Regional Weather Roundup
Issued by NWS Albany, NY

Home | Current Version | Previous Version | Text Only | Print | Product List | Glossary On
Versions: 1 2 3 4 5 6 7 8 9 10 11 12 13 14 15 16 17 18 19 20 21 22 23 24 25 26 27 28 29 30 31 32 33 34 35 36 37 38 39 40 41 42 43 44 45 46 47 48 49 50
000
ASUS41 KALY 071310
RWRALY

NEW YORK STATE HOURLY WEATHER ROUNDUP
NATIONAL WEATHER SERVICE ALBANY NY
800 AM EST SUN FEB 07 2016

NOTE: "FAIR" INDICATES FEW OR NO CLOUDS BELOW 12,000 FEET WITH NO
SIGNIFICANT WEATHER AND/OR NO OBSTRUCTIONS TO VISIBILITY.

NYZ032-033-038>043-046>054-057>066-NYZ062>081-071400-
EAST


CITY           SKY/WX    TMP DP  RH WIND       PRES   REMARKS
ALBANY         CLEAR     28  19  69 S5        30.16R WCI  23
GLENS FALLS    CLEAR     23  18  81 CALM      30.14S
POUGHKEEPSIE   CLEAR     24  19  81 CALM      30.16F
NEWBURGH       CLEAR     25  21  86 CALM      30.16F
MONTGOMERY     CLEAR     23  19  85 CALM      30.15F
WHITE PLAINS   PTCLDY    25  20  81 NW6       30.15F WCI  18
ISLIP          PTCLDY    23  22  96 CALM      30.18S
NEW YORK CITY  PTCLDY    37  24  59 CALM      30.20S
CENTRAL PARK   CLEAR     35  21  56 CALM      30.21S
$$

NYZ005>009-017-018-044>046-055-056-071400-
CENTRAL


CITY           SKY/WX    TMP DP  RH WIND       PRES   REMARKS
FULTON         CLEAR     29  23  78 S6        30.12F WCI  23
SYRACUSE       PTCLDY    25  23  92 CALM      30.12F
ROME           MOCLDY    22  21  96 CALM      30.15S
ELMIRA         CLEAR     20  17  88 SW5       30.12S WCI  13
BINGHAMTON     CLEAR     27  18  69 SW6       30.07S WCI  20
MONTICELLO     CLEAR     19  18  93 CALM      30.12F
$$

NYZ026>034-041>043-071400-
NORTH


CITY           SKY/WX    TMP DP  RH WIND       PRES   REMARKS
WATERTOWN      CLOUDY    34  29  82 CALM      30.11F HAZE
FORT DRUM      NOT AVBL
MASSENA        CLOUDY    32  24  72 N10       30.14R WCI  24
SARANAC LAKE   CLOUDY    28  24  85 SW3       30.05R
PLATTSBURGH    CLOUDY    35  24  64 CALM      30.12S
$$

NYZ001>004-010>016-019>021-071400-
WEST


CITY           SKY/WX    TMP DP  RH WIND       PRES   REMARKS
NIAGARA FALLS  MOCLDY    32  26  78 S6        30.06F WCI  26
BUFFALO        PTCLDY    31  22  69 S7        30.07F WCI  24
DUNKIRK        CLEAR     28  20  71 S7        30.07F WCI  21
JAMESTOWN      CLEAR     25  16  68 S5        30.04S WCI  19
WELLSVILLE     CLEAR     27  16  63 CALM      30.05S
ROCHESTER      PTCLDY    27  22  81 CALM      30.10F
PENN YAN       CLEAR     27  21  78 W3        30.10F
$$

             KEY
       WCI = WIND CHILL INDEX
       VSB = VISIBILITY
       HX  = HEAT INDEX
$$



USA.gov is the U.S. government's official web portal to all federal, state and local government web resources and services.